Location: Ackerson Creek
(37.8210°N, 119.8757°W)
Time: 15:34:56
(UTC+00:00)

Cosmos 1867 - Pass Details

Date: 13 April 2024
Orbit: 772 x 802 km, 65.0° (Epoch: 22 May)

Event Time Altitude Azimuth Distance (km) Brightness Sun altitude
Rises 12:10:05 0° 318° (NW) 3,315 6.6 -15.1°
Reaches altitude 10° 12:12:47 10° 307° (NW) 2,380 5.8 -14.6°
Maximum altitude 12:17:25 29° 250° (WSW) 1,443 4.3 -13.7°
Drops below altitude 10° 12:22:00 10° 191° (SSW) 2,357 5.7 -12.9°
Sets 12:24:42 0° 180° (S) 3,278 6.5 -12.4°
